#timestamp,LO_Frequency,Hit 
1503234015.7,286047019.6,N
1503234035.6,286047029.0,P
1503234055.4,286047020.8,N
1503234075.2,286047013.2,N
1503234095.1,286047009.3,N
1503234096.0,286047009.3,N
1503234115.8,286047009.9,N
1503234135.6,286047022.1,N
1503234155.4,286047012.1,N
1503234175.3,286047002.2,N
1503234195.1,286046998.2,N
1503234215.8,286047007.3,N
1503234235.7,286047008.2,N
1503234255.5,286047012.1,N
1503234275.3,286047008.1,N
1503234295.2,286047012.9,N
1503234315.9,286047009.6,N
1503234335.7,286047009.0,N
1503234355.6,286047007.8,N
1503234375.4,286047015.3,N
1503234395.2,286047007.5,N
1503234415.1,286046992.5,N
1503234416.0,286046992.5,N
1503234435.8,286046994.6,N
1503234455.6,286046996.1,N
1503234475.4,286046989.0,N
1503234495.3,286046990.3,N
1503234515.1,286046993.0,N
1503234535.8,286047003.5,N
1503234555.7,286046991.1,N
1503234575.5,286046990.9,N
1503234595.3,286046998.9,N
1503234615.2,286047005.6,N
1503234635.9,286047023.9,N
1503234655.7,286047019.5,N
1503234675.6,286047028.1,N
1503234695.4,286047028.8,N
1503234715.2,286047025.2,N
1503234735.1,286047024.5,N
1503234736.0,286047024.5,N
1503234755.8,286047030.2,N
1503234775.6,286047034.6,N
1503234795.5,286047045.4,P
1503234815.3,286047047.4,N
1503234835.1,286047036.8,N
1503234855.9,286047031.7,N
1503234875.7,286047029.1,N
1503234895.5,286047019.3,N
1503234915.3,286047020.9,N
1503234935.2,286047016.3,N
1503234955.0,286047014.4,N
1503234955.9,286047014.4,N
1503234975.7,286047006.8,N
1503234995.6,286046996.7,N
1503235015.4,286046995.9,N
1503235035.2,286046988.9,N
1503235055.1,286047001.0,N
1503235056.0,286047001.0,N
1503235075.8,286047005.8,N
1503235095.6,286047017.5,N
1503235115.5,286047011.0,N
1503235135.3,286047013.6,N
1503235155.1,286047004.3,N
1503235175.8,286047009.4,N
1503235195.7,286047013.8,N
1503235215.5,286047009.5,N
1503235235.3,286047015.8,N
1503235255.2,286047026.4,N
1503235275.0,286047025.7,N
1503235275.9,286047025.7,N
1503235295.7,286047013.8,N
1503235315.6,286047003.8,N
1503235335.4,286047001.0,N
1503235355.2,286046993.8,N
1503235375.1,286046998.0,N
1503235376.0,286046998.0,N
1503235395.8,286047013.6,N
1503235415.6,286047005.2,N
1503235435.5,286047008.9,N
1503235455.3,286047005.2,N
1503235475.1,286047005.1,N
1503235495.9,286047004.8,N
1503235515.7,286046996.9,N
1503235535.5,286046993.1,N
1503235555.3,286046997.0,N
1503235575.2,286047004.3,N
1503235595.0,286046997.2,N
1503235595.9,286046997.2,N
1503235615.7,286046993.9,N
1503235635.6,286046996.4,N
1503235655.4,286046988.6,N
1503235675.2,286046991.9,N
1503235695.1,286046995.5,N
1503235696.0,286046995.5,N
1503235715.8,286046992.4,N
1503235735.6,286046992.2,N
1503235755.5,286046994.1,N
1503235775.3,286046994.9,N
1503235795.1,286046994.4,N
1503235815.9,286046987.2,N
1503235835.7,286046986.9,N
1503235855.5,286046992.6,N
1503235875.4,286046993.4,N
1503235895.2,286046991.0,N
1503235915.0,286047008.0,N
1503235915.9,286047008.0,N
1503235935.8,286046997.4,N
1503235955.6,286046987.9,N
1503235975.4,286046986.7,N
1503235995.2,286046987.2,N
1503236015.1,286046987.0,N
1503236016.0,286046987.0,N
1503236035.8,286046981.1,P
1503236055.7,286046978.0,P
1503236075.5,286046970.2,P
1503236095.3,286046974.2,P
1503236115.2,286047009.8,N
1503236135.9,286047010.2,N
1503236155.7,286046997.9,N
1503236175.6,286046997.0,N
1503236195.4,286047001.1,N
1503236215.2,286047006.1,N
1503236235.0,286047034.0,N
1503236235.9,286047034.0,N
1503236255.8,286047031.5,N
1503236275.6,286047025.6,N
1503236295.4,286047036.5,N
1503236315.3,286047040.9,N
1503236335.1,286047036.5,N
1503236336.0,286047036.5,N
1503236355.8,286047026.9,N
1503236375.7,286047022.8,N
1503236395.5,286047025.9,N
1503236415.3,286047021.7,N
1503236435.2,286047021.8,N
1503236455.9,286047014.4,N
1503236475.7,286047012.2,N
1503236495.6,286047026.2,N
1503236515.4,286047020.6,N
1503236535.2,286047014.0,N
1503236555.0,286047012.2,N
1503236555.9,286047012.2,N
1503236575.8,286047007.8,N
1503236595.6,286047006.4,N
1503236615.4,286047003.8,N
1503236635.3,286047005.4,N
1503236655.1,286046998.5,N
1503236675.8,286046998.9,N
1503236695.7,286047002.1,N
1503236715.5,286047008.1,N
1503236735.3,286047017.0,N
1503236755.2,286047011.0,N
1503236775.9,286047014.7,N
1503236795.7,286047015.3,N
1503236815.6,286047020.8,N
1503236835.4,286047032.3,N
1503236855.2,286047037.5,P
1503236875.1,286047019.6,N
1503236876.0,286047019.6,N
1503236895.8,286047014.2,N
1503236915.6,286047002.7,N
1503236935.5,286046992.0,N
1503236955.3,286046984.3,N
1503236975.1,286046977.9,N
1503236995.8,286046976.4,N
1503237015.7,286046981.5,N
1503237035.5,286046977.8,N
1503237055.3,286046969.3,N
1503237075.2,286046965.8,N
1503237095.9,286046966.8,N
1503237115.7,286046959.9,N
1503237135.6,286046969.9,N
1503237155.4,286046991.1,N
1503237175.2,286046982.4,N
1503237195.1,286046971.0,N
1503237196.0,286046971.0,N
1503237215.8,286046972.2,N
1503237235.6,286046975.3,N
1503237255.5,286046969.6,N
1503237275.3,286046975.5,N
1503237295.1,286046969.4,N
1503237315.8,286046969.0,N
1503237335.7,286046970.7,N
1503237355.5,286046995.6,N
1503237375.3,286047003.2,N
1503237395.2,286046999.3,N
1503237415.9,286047001.5,N
1503237435.7,286047002.0,N
1503237455.6,286046998.6,N
1503237475.4,286047013.7,N
1503237495.2,286047024.8,N
1503237515.1,286047021.6,N
1503237516.0,286047021.6,N
1503237535.8,286047011.3,N
1503237555.6,286047005.4,N
1503237575.5,286046995.4,N
1503237595.3,286046999.0,N
